Location: Muck Cross
(36.7179°N, 78.3678°W)
Time: 11:54:02
(UTC+00:00)

Courier 1B - All Passes

Search period start: 26 March 2023 00:00
Search period end: 05 April 2023 00:00
Orbit: 962 x 1209 km, 28.3° (Epoch: 26 March)

Date Brightness Start Highest point End Pass type
(mag) Time Alt. Az. Time Alt. Az. Time Alt. Az.
26 Mar - 01:33:08 10° WSW 01:38:39 27° SSW 01:44:00 10° SE visible
26 Mar - 18:59:35 10° SSW 19:04:23 18° SSE 19:09:03 10° ESE daylight
26 Mar - 20:51:14 10° SW 20:57:53 35° SSE 21:04:12 10° ESE daylight
26 Mar - 22:44:45 10° WSW 22:51:32 43° S 22:57:56 10° ESE daylight
27 Mar - 00:39:01 10° WSW 00:45:03 32° SSW 00:50:49 10° SE visible
27 Mar - 02:35:01 10° WSW 02:38:11 14° SSW 02:41:19 10° S visible
27 Mar - 18:07:06 10° S 18:10:41 14° SSE 18:14:11 10° ESE daylight
27 Mar - 19:57:37 10° SW 20:04:07 31° SSE 20:10:20 10° ESE daylight
27 Mar - 21:50:50 10° WSW 21:57:46 43° S 22:04:19 10° ESE daylight
27 Mar - 23:44:57 10° WSW 23:51:23 36° SSW 23:57:29 10° SE visible
28 Mar - 01:40:09 10° WSW 01:44:39 19° SSW 01:49:01 10° SSE visible
28 Mar - 19:04:09 10° SSW 19:10:21 27° SSE 19:16:20 10° ESE daylight
28 Mar - 20:56:58 10° WSW 21:03:59 42° S 21:10:38 10° ESE daylight
28 Mar - 22:50:55 10° WSW 22:57:41 40° S 23:04:03 10° ESE daylight
29 Mar - 00:45:42 10° WSW 00:51:04 24° SSW 00:56:14 10° SSE visible
29 Mar - 18:10:54 10° SSW 18:16:36 22° SSE 18:22:08 10° ESE daylight
29 Mar - 20:03:09 10° SW 20:10:10 39° S 20:16:52 10° ESE daylight
29 Mar - 21:56:55 10° WSW 22:03:55 43° S 22:10:32 10° ESE daylight
29 Mar - 23:51:25 10° WSW 23:57:27 29° SSW 00:03:11 10° SE visible
30 Mar - 01:48:46 10° SW 01:50:32 11° SSW 01:52:18 10° SSW visible
30 Mar - 17:18:00 10° SSW 17:22:50 18° SSE 17:27:37 10° ESE daylight
30 Mar - 19:09:27 10° SW 19:16:22 35° SSE 19:23:02 10° ESE daylight
30 Mar - 21:02:57 10° WSW 21:10:07 44° S 21:16:55 10° ESE daylight
30 Mar - 22:57:15 10° WSW 23:03:46 34° SSW 23:09:57 10° SE daylight
31 Mar - 00:53:02 10° WSW 00:57:00 16° SSW 01:00:50 10° S visible
31 Mar - 16:25:42 10° S 16:29:07 13° SSE 16:32:32 10° SE daylight
31 Mar - 18:15:53 10° SW 18:22:33 31° SSE 18:29:03 10° ESE daylight
31 Mar - 20:09:01 10° WSW 20:16:17 44° S 20:23:14 10° ESE daylight
31 Mar - 22:03:09 10° WSW 22:10:02 39° SSW 22:16:34 10° SE daylight
31 Mar - 23:58:16 10° WSW 00:03:25 21° SSW 00:08:21 10° SSE visible
01 Apr - 17:22:30 10° SSW 17:28:45 26° SSE 17:34:55 10° ESE daylight
01 Apr - 19:15:10 10° WSW 19:22:25 42° S 19:29:26 10° ESE daylight
01 Apr - 21:09:05 10° WSW 21:16:15 43° S 21:23:03 10° ESE daylight
01 Apr - 23:03:49 10° WSW 23:09:47 26° SSW 23:15:27 10° SSE daylight
02 Apr - 16:29:22 10° SSW 16:34:59 21° SSE 16:40:34 10° ESE daylight
02 Apr - 18:21:25 10° SW 18:28:34 39° SSE 18:35:35 10° ESE daylight
02 Apr - 20:15:05 10° WSW 20:22:24 45° S 20:29:25 10° ESE daylight
02 Apr - 22:09:33 10° WSW 22:16:04 32° SSW 22:22:17 10° SE daylight
03 Apr - 00:06:10 10° SW 00:09:17 13° SSW 00:12:19 10° S visible
03 Apr - 15:36:39 10° S 15:41:14 17° SSE 15:45:52 10° ESE daylight
03 Apr - 17:27:46 10° SW 17:34:43 35° SSE 17:41:36 10° ESE daylight
03 Apr - 19:21:08 10° WSW 19:28:31 46° S 19:35:42 10° ESE daylight
03 Apr - 21:15:23 10° WSW 21:22:19 37° SSW 21:28:56 10° SE daylight
03 Apr - 23:10:57 10° WSW 23:15:40 18° SSW 23:20:14 10° SSE daylight
04 Apr - 14:44:43 10° S 14:47:32 12° SSE 14:50:22 10° SE daylight
04 Apr - 16:34:19 10° SW 16:40:53 30° SSE 16:47:30 10° ESE daylight
04 Apr - 18:27:16 10° WSW 18:34:38 45° S 18:41:54 10° ESE daylight
04 Apr - 20:21:17 10° WSW 20:28:29 41° S 20:35:26 10° ESE daylight
04 Apr - 22:16:17 10° WSW 22:22:01 23° SSW 22:27:32 10° SSE daylight
